Freeland, MI

6:40 PM EST on February 09, 2016 (GMT -0500)
MBS International

Weather History for KMBS - March, 2014

Change the Weather History Date:

Saturday, March 22, 2014

  Actual Average Record
Temperature  
Mean Temperature 29 °F 36 °F  
Max Temperature 37 °F 45 °F 75 °F (2012)
Min Temperature 20 °F 27 °F 14 °F (2002)
Degree Days  
Heating Degree Days 36    
Month to date heating degree days 912  
Since 1 July heating degree days 6504  
Cooling Degree Days 0    
Month to date cooling degree days 0  
Year to date cooling degree days 0  
Moisture  
Dew Point 25 °F    
Average Humidity 74    
Maximum Humidity 92    
Minimum Humidity 55    
Precipitation  
Precipitation 0.01 in 0.07 in 0.50 in (2007)
Month to date precipitation 0.74 1.44  
Year to date precipitation 4.52 4.76  
Snow  
Snow T in - - ()
Month to date snowfall 5.4  
Since 1 July snowfall 58.5  
Snow Depth 1.00 in    
Sea Level Pressure  
Sea Level Pressure 29.96 in    
Wind  
Wind Speed 13 mph (NW)    
Max Wind Speed 22 mph    
Max Gust Speed 26 mph    
Visibility 9 miles    
Events Rain    
T = Trace of Precipitation, MM = Missing Value Source: NWS Daily Summary

Daily Weather History Graph

Daily Weather History Graph

Search for Another Location

Airport or City:

Trip Planner

Search our weather history database for the weather conditions in past years. The results will help you decide how hot, cold, wet, or windy it might be!

Date:

Astronomy

Mar. 22, 2014 Rise Set
Actual Time 7:35 AM EDT 7:51 PM EDT
Civil Twilight 7:07 AM EDT 8:19 PM EDT
Nautical Twilight 6:33 AM EDT 8:53 PM EDT
Astronomical Twilight 5:59 AM EDT 9:27 PM EDT
Moon 1:17 AM EDT (3/22) 11:09 AM EDT (3/22)
Length of Visible Light 13h 12m
Length of Day
12h 15m
Waning Gibbous, 65% of the Moon is Illuminated
Mar 22
Waning Gibbous
Mar 23
Last Quarter
Mar 30
New
Apr 7
First Quarter
Apr 15
Full

Hourly Weather History & Observations

Time (EDT) Temp. Windchill Dew Point Humidity Pressure Visibility Wind Dir Wind Speed Gust Speed Precip Events Conditions
12:05 AM 32.0 °F 22.1 °F 30.0 °F 92% 29.71 in 6.0 mi SE 13.8 mph - 0.00 in   Overcast
12:35 AM 33.1 °F 27.7 °F 30.0 °F 89% 29.70 in 7.0 mi ESE 5.8 mph - 0.00 in Rain Light Freezing Rain
12:53 AM 33.1 °F 27.7 °F 30.0 °F 89% 29.72 in 7.0 mi East 5.8 mph - 0.00 in Rain Light Freezing Rain
12:58 AM 33.1 °F - 30.0 °F 89% 29.70 in 7.0 mi Calm Calm - 0.00 in Rain Light Rain
1:03 AM 33.1 °F 30.0 °F 30.0 °F 89% 29.70 in 7.0 mi ENE 3.5 mph - 0.01 in Rain Light Freezing Rain
1:34 AM 33.1 °F 25.5 °F 30.0 °F 89% 29.70 in 7.0 mi North 9.2 mph - 0.01 in   Overcast
1:53 AM 33.1 °F 26.1 °F 30.0 °F 89% 29.73 in 6.0 mi North 8.1 mph - 0.01 in   Overcast
2:33 AM 33.1 °F 24.9 °F 30.0 °F 89% 29.71 in 6.0 mi North 10.4 mph - N/A   Overcast
2:53 AM 32.0 °F 24.2 °F 30.0 °F 92% 29.73 in 7.0 mi North 9.2 mph - N/A   Overcast
3:28 AM 33.1 °F 25.5 °F 30.0 °F 89% 29.72 in 8.0 mi NNW 9.2 mph - N/A   Overcast
3:53 AM 33.1 °F 24.9 °F 30.0 °F 89% 29.76 in 8.0 mi NW 10.4 mph - N/A   Overcast
4:53 AM 32.0 °F 24.8 °F 28.0 °F 85% 29.81 in 10.0 mi NW 8.1 mph - N/A   Mostly Cloudy
5:10 AM 32.0 °F 23.6 °F 28.0 °F 85% 29.80 in 10.0 mi NW 10.4 mph - N/A   Overcast
5:53 AM 33.1 °F 23.9 °F 28.0 °F 82% 29.85 in 10.0 mi WNW 12.7 mph - N/A   Overcast
6:53 AM 33.1 °F 24.9 °F 28.0 °F 82% 29.90 in 10.0 mi NW 10.4 mph - N/A   Overcast
7:43 AM 30.9 °F 22.8 °F 27.0 °F 85% 29.91 in 10.0 mi WNW 9.2 mph - N/A   Scattered Clouds
7:53 AM 32.0 °F 23.6 °F 27.0 °F 82% 29.94 in 10.0 mi WNW 10.4 mph - N/A   Clear
8:17 AM 33.1 °F 25.5 °F 27.0 °F 78% 29.93 in 10.0 mi WNW 9.2 mph - N/A   Mostly Cloudy
8:53 AM 33.1 °F 26.1 °F 27.0 °F 78% 29.96 in 10.0 mi West 8.1 mph - N/A   Scattered Clouds
9:53 AM 35.1 °F 27.9 °F 27.0 °F 72% 30.00 in 10.0 mi WNW 9.2 mph - N/A   Clear
10:53 AM 36.0 °F 28.5 °F 27.0 °F 70% 30.03 in 10.0 mi WNW 10.4 mph - N/A   Overcast
11:53 AM 36.0 °F 29.0 °F 27.0 °F 70% 30.05 in 10.0 mi West 9.2 mph - N/A   Overcast
12:28 PM 36.0 °F 26.7 °F 27.0 °F 70% 30.04 in 10.0 mi West 15.0 mph - N/A   Overcast
12:53 PM 36.0 °F 27.1 °F 27.0 °F 70% 30.07 in 10.0 mi West 13.8 mph - N/A   Overcast
1:40 PM 35.1 °F 25.9 °F 28.0 °F 76% 30.07 in 10.0 mi NW 13.8 mph - N/A   Overcast
1:53 PM 35.1 °F 25.2 °F 26.1 °F 70% 30.10 in 10.0 mi NW 16.1 mph - N/A   Overcast
2:53 PM 34.0 °F 24.2 °F 25.0 °F 70% 30.10 in 10.0 mi NW 15.0 mph - N/A   Overcast
3:32 PM 36.0 °F 26.0 °F 26.1 °F 67% 30.08 in 10.0 mi NW 17.3 mph - N/A   Overcast
3:41 PM 37.0 °F 29.3 °F 26.1 °F 65% 30.08 in 10.0 mi NW 11.5 mph - N/A   Overcast
3:53 PM 35.1 °F 26.4 °F 24.1 °F 64% 30.11 in 10.0 mi WNW 12.7 mph 20.7 mph N/A   Overcast
4:23 PM 35.1 °F 25.9 °F 23.0 °F 61% 30.09 in 10.0 mi WNW 13.8 mph - N/A   Overcast
4:53 PM 35.1 °F 24.5 °F 21.9 °F 59% 30.12 in 10.0 mi WNW 18.4 mph 26.5 mph N/A   Mostly Cloudy
5:53 PM 33.1 °F 21.9 °F 19.9 °F 59% 30.14 in 10.0 mi WNW 18.4 mph - N/A   Mostly Cloudy
6:53 PM 30.9 °F 19.4 °F 18.0 °F 59% 30.17 in 10.0 mi NW 17.3 mph - N/A   Partly Cloudy
7:53 PM 28.0 °F 18.1 °F 15.1 °F 58% 30.19 in 10.0 mi NNW 11.5 mph - N/A   Partly Cloudy
8:53 PM 25.0 °F 11.3 °F 12.0 °F 58% 30.24 in 10.0 mi NNW 18.4 mph - N/A   Overcast
9:53 PM 24.1 °F 12.0 °F 10.9 °F 57% 30.27 in 10.0 mi North 13.8 mph - N/A   Scattered Clouds
10:53 PM 21.9 °F 9.2 °F 10.0 °F 60% 30.29 in 10.0 mi North 13.8 mph - N/A   Clear
11:53 PM 21.0 °F 7.1 °F 9.0 °F 60% 30.30 in 10.0 mi NNW 16.1 mph - N/A   Clear